SCP
0 0 0 0 0 0 0 0 0 0 0 0 0 0 0 0 0 0 0 0 0 1 1 1 1 1 1 1 1 1 1 1 1 1 1 1 1 1 1 0 0 0 0
0 0 0 0 0 0 0 0 0 0 0 0 0 0 0 0 0 0 0 0 0 1 1 1 1 1 1 1 1 1 1 1 1 1 1 1 1 1 1 1 1 1 1
0 0 0 0 0 0 0 0 0 0 0 0 0 0 0 0 0 0 0 0 0 1 1 1 1 1 1 1 1 1 1 1 1 1 1 1 1 1 1 1 1 1 1
0 0 0 0 0 0 0 0 0 0 0 0 1 1 1 0 0 0 0 0 0 0 1 1 1 1 1 1 1 1 1 1 1 1 1 1 1 1 1 1 1 1 1
0 0 0 0 0 0 0 0 0 0 0 1 1 1 0 0 0 0 0 0 0 0 0 1 1 1 1 1 1 1 1 1 1 1 1 1 1 1 1 1 1 1 1
0 0 0 0 0 1 1 1 1 0 0 0 0 0 0 0 0 0 0 0 0 0 0 0 1 1 1 1 1 1 1 1 1 1 1 1 1 1 1 1 1 1 1
0 0 1 1 1 1 1 1 0 0 0 0 0 0 0 0 0 0 0 0 0 0 0 0 1 1 1 1 1 1 1 1 1 1 1 1 1 1 1 1 1 1 1
0 1 1 1 1 1 1 1 0 0 0 0 0 0 0 0 0 0 0 0 0 0 0 0 1 1 1 1 1 1 1 1 1 1 1 1 1 1 1 1 1 1 1
1 1 1 1 1 0 1 1 1 1 1 0 0 0 0 1 1 0 0 0 0 0 0 0 0 0 0 0 0 0 0 0 1 1 1 1 1 1 1 1 1 1 2
1 1 1 1 1 1 1 1 1 1 1 1 1 1 1 1 1 1 0 0 0 0 0 0 0 0 0 0 0 0 0 0 0 1 1 1 1 1 1 1 1 1 2
1 1 1 1 1 1 1 1 1 1 1 1 1 1 1 1 1 1 0 0 0 0 0 0 0 0 0 0 0 0 0 0 0 0 1 1 1 1 1 1 1 1 1
1 1 1 1 1 1 1 2 1 1 1 1 1 1 1 1 1 1 1 0 0 0 0 0 0 0 0 0 0 0 0 0 0 0 0 1 1 1 1 1 1 1 1
1 1 1 1 1 1 2 2 2 1 1 1 1 1 1 1 1 1 1 0 0 0 0 0 0 0 0 0 0 0 0 0 0 0 0 0 1 1 1 1 1 1 1
1 1 1 1 1 1 2 2 2 2 1 1 1 1 1 1 1 1 0 0 0 0 0 0 0 0 0 0 0 0 0 0 0 0 0 0 0 0 0 0 0 1 1
1 1 1 1 1 1 2 2 2 2 1 1 1 1 1 1 1 0 0 0 0 0 0 0 0 0 0 0 0 0 0 0 0 0 0 0 0 0 0 0 0 0 0
1 1 1 1 1 1 2 2 2 1 1 0 0 0 0 0 1 0 0 0 0 0 0 0 0 0 0 0 0 0 0 0 0 0 0 0 0 0 0 0 0 0 0
1 1 1 1 1 1 2 2 1 0 0 0 0 0 0 0 0 0 0 0 0 0 0 0 0 0 0 0 0 0 0 0 0 0 0 0 0 0 0 0 0 0 0
1 1 1 2 2 2 2 1 1 0 0 0 0 0 0 0 0 0 0 0 0 0 0 0 0 0 0 0 0 0 0 0 0 0 0 0 0 0 0 0 0 0 0
1 2 2 2 3 3 2 1 1 1 1 1 1 1 1 1 0 0 0 0 0 0 0 0 0 0 0 0 0 0 0 0 0 0 0 0 0 0 0 0 0 0 0
2 3 3 3 3 3 3 2 1 1 1 1 1 1 1 1 1 1 1 0 0 0 0 0 0 0 0 0 0 0 0 0 0 0 0 0 0 0 0 0 0 0 0
3 4 5 4 3 4 3 2 2 2 2 2 2 2 2 2 2 1 1 1 0 0 0 0 0 0 1 1 1 1 1 1 1 1 0 0 0 0 0 0 0 0 0
4 5 5 3 3 3 3 2 2 3 3 4 4 4 3 3 2 2 1 1 1 1 1 1 1 1 1 2 2 2 2 2 2 2 1 1 1 1 0 0 0 0 0
3 3 3 3 2 2 2 2 2 3 3 4 4 5 4 4 3 3 2 1 1 1 1 1 1 2 2 3 4 4 4 4 4 3 2 2 2 2 2 1 0 0 0
2 2 1 1 2 2 1 1 1 2 2 3 4 4 5 4 4 4 3 2 2 1 1 1 2 2 2 3 4 5 6 6 6 5 5 4 4 4 3 2 1 0 0
1 1 1 1 1 1 1 0 0 1 1 2 2 3 4 4 3 3 4 4 3 2 1 1 1 1 1 2 3 4 6 7 7 7 7 7 6 5 5 4 3 1 1
1 1 1 1 1 1 0 0 0 1 1 1 1 2 2 3 2 2 3 4 4 3 2 1 1 1 1 1 1 3 5 6 7 7 8 8 7 6 6 5 4 3 1
Wind_Speed
1 1 1 1 1 1 1 1 1 2 1 2 1 2 1 1 1 1 1 3 3 4 6 7 9 9 9 9 9 9 9 9 9 9 9 9 9 9 9 10 9 9 9
1 1 1 1 1 1 1 1 1 1 1 1 2 2 1 1 1 1 1 1 1 1 2 4 6 6 7 8 9 9 9 9 9 8 9 9 9 9 9 10 10 9 9
1 1 1 1 0 1 2 1 2 2 2 2 2 2 1 1 1 1 1 1 0 0 0 1 2 3 5 6 7 8 9 10 9 9 9 8 8 8 9 10 10 10 10
2 1 1 1 1 1 2 2 2 2 2 2 2 2 2 1 1 1 1 1 1 1 1 2 1 1 2 3 3 5 7 8 9 9 9 9 8 8 8 9 9 9 9
2 2 1 1 1 2 2 2 2 2 2 2 2 2 2 2 2 2 2 2 2 2 2 2 3 3 2 2 3 4 4 6 6 7 8 8 8 7 7 7 8 8 7
2 2 1 1 2 2 2 2 3 2 2 2 3 4 3 3 3 3 2 2 2 2 2 3 2 3 4 4 4 3 2 2 3 3 5 5 6 5 4 4 5 5 6
2 2 2 2 2 2 2 3 3 3 2 2 3 3 3 4 4 3 3 3 3 3 3 3 2 2 2 5 6 5 3 1 1 1 2 2 3 3 3 3 3 3 4
1 2 2 2 2 2 2 3 3 2 1 1 2 2 1 2 4 4 3 3 3 3 3 3 3 3 3 2 5 6 5 4 2 1 1 1 1 1 1 2 3 3 3
1 2 2 2 2 2 2 2 3 3 2 1 1 2 2 2 1 2 4 3 3 3 3 3 4 4 3 3 3 5 6 5 4 2 2 2 2 2 1 2 2 3 3
1 2 2 2 2 2 2 2 2 2 3 2 1 1 1 3 3 1 2 2 3 4 4 3 3 4 4 3 4 7 7 7 6 5 4 3 2 2 1 2 2 3 3
1 1 2 2 1 1 1 1 1 2 2 2 2 1 2 1 2 2 1 1 2 3 3 3 2 3 3 3 3 6 8 8 7 7 6 5 5 4 3 1 2 2 3
1 1 1 1 1 1 1 1 1 2 2 2 2 2 2 2 2 2 2 2 1 1 2 2 2 2 3 3 5 8 8 9 9 8 7 6 6 6 5 5 3 2 3
0 1 0 1 0 1 1 1 1 1 1 2 2 1 1 2 2 3 4 2 1 1 1 2 2 2 3 3 4 7 8 9 9 9 8 8 7 7 7 7 7 6 6
1 1 1 1 1 0 1 1 1 1 1 1 1 1 1 2 3 3 4 4 2 1 1 0 1 2 2 2 4 6 5 8 8 9 9 9 9 9 9 9 9 8 8
1 1 1 1 1 1 1 1 1 1 1 1 1 1 1 1 2 2 3 4 4 3 1 1 1 1 1 2 3 3 4 7 9 9 9 10 11 10 10 10 10 9 9
1 2 2 2 1 1 1 2 1 1 2 1 1 1 1 1 1 2 3 2 2 3 2 1 1 1 1 2 4 3 4 7 8 8 9 9 9 10 10 10 10 11 11
2 2 2 2 2 1 1 2 2 2 2 1 1 1 1 1 2 2 2 2 2 2 3 1 1 1 2 2 2 2 3 3 4 7 8 8 8 8 9 9 10 10 10
2 2 2 2 2 2 2 2 2 2 2 2 1 2 1 1 2 2 2 3 2 2 4 3 2 2 2 2 2 2 2 2 2 5 6 6 7 7 7 8 8 8 8
3 3 3 3 2 2 2 2 2 2 2 2 2 2 1 2 2 1 2 2 2 2 2 4 2 1 1 2 2 2 2 1 1 2 4 4 4 5 5 6 6 6 6
4 3 3 2 2 3 3 3 3 2 2 2 2 2 2 2 2 3 2 3 3 3 4 4 3 2 2 2 2 1 1 1 1 1 2 2 3 3 3 4 4 5 4
4 3 3 2 2 2 3 3 3 3 2 2 2 2 1 2 2 3 3 4 4 4 4 3 3 2 2 2 2 2 2 0 0 0 0 1 0 0 1 1 3 3 3
3 3 3 3 2 2 4 5 4 3 3 2 2 1 1 2 2 3 4 5 6 5 5 4 3 3 3 3 3 3 2 1 1 1 1 0 0 1 1 1 2 3 3
3 3 3 2 2 2 4 6 6 4 3 2 2 1 1 1 2 2 3 4 3 4 5 5 5 5 4 5 5 4 3 3 2 2 2 1 1 1 1 2 4 4 4
4 3 3 3 2 2 4 5 6 4 3 2 1 1 2 1 1 2 3 3 2 1 2 3 4 4 3 4 5 4 4 2 1 1 2 1 1 2 2 2 3 5 5
4 3 3 4 3 3 4 6 5 3 2 1 1 1 2 1 1 3 3 3 1 0 0 2 2 2 2 4 4 4 3 3 1 2 2 2 1 1 1 2 3 5 6
3 3 3 3 3 3 4 6 6 3 3 1 1 0 1 2 2 3 3 3 2 1 1 1 1 1 1 3 5 4 4 3 2 2 3 3 2 1 1 1 2 2 3
Wind_Direction
91 89 77 75 82 92 86 76 78 74 64 64 80 104 118 129 140 144 161 179 187 204 206 208 209 212 211 209 209 209 211 216 215 213 214 218 218 218 216 214 215 215 216
135 119 104 96 98 118 116 105 103 88 72 75 70 84 102 95 125 140 153 197 208 206 214 215 219 214 216 217 219 219 218 221 220 218 218 222 224 223 222 223 223 222 222
146 136 127 120 126 114 113 100 84 85 88 79 66 67 77 93 123 132 122 101 21 313 253 187 226 225 225 223 227 228 228 229 223 220 221 224 228 227 225 226 228 226 227
149 138 130 144 146 121 112 109 103 93 83 80 63 42 51 60 71 80 84 74 55 14 28 39 8 314 253 229 229 232 232 232 230 225 224 226 230 230 227 227 228 228 228
139 132 132 131 121 108 108 123 113 120 109 93 76 57 47 44 45 56 74 74 65 48 34 24 15 14 348 318 276 259 247 233 230 227 226 227 227 227 225 229 231 230 229
122 122 122 111 117 114 108 114 115 106 107 102 79 61 46 45 50 54 62 69 64 56 46 35 19 1 11 9 1 343 273 239 210 213 220 223 225 224 220 225 228 229 231
116 120 122 112 121 128 134 130 119 106 96 104 90 67 48 48 53 45 49 60 59 56 60 52 41 26 9 16 18 16 9 336 193 207 216 220 229 233 213 199 202 212 216
127 141 134 128 125 122 122 128 129 120 123 120 116 110 73 41 40 41 44 52 52 53 54 52 48 40 28 20 18 22 20 16 13 77 127 131 160 173 174 181 186 183 185
119 120 123 123 122 133 152 160 154 151 160 159 140 143 148 165 84 39 40 45 46 48 44 47 47 38 31 27 9 19 27 27 26 37 84 111 119 132 159 172 172 167 168
89 111 118 122 130 142 163 186 170 164 160 173 150 107 142 150 147 123 43 40 45 47 40 38 36 34 29 26 30 38 39 39 41 45 56 71 85 105 133 175 171 165 159
59 91 115 125 133 147 165 170 158 163 169 173 168 149 119 96 122 142 144 81 51 47 47 42 41 34 28 26 33 47 47 47 47 50 55 65 68 66 63 79 141 153 147
33 51 115 128 146 161 178 183 171 169 180 173 173 169 166 162 160 145 148 151 115 62 50 42 40 36 33 28 45 54 54 53 52 55 57 62 65 64 60 56 63 104 121
220 272 150 143 174 197 177 157 147 162 178 180 188 191 182 179 155 144 142 144 136 117 73 51 31 35 42 36 41 53 58 58 56 57 59 65 68 65 63 59 58 69 81
208 203 162 156 153 137 131 126 123 155 152 179 193 178 174 172 156 151 149 147 141 127 86 59 40 42 43 46 50 48 56 60 59 60 63 66 68 67 66 65 63 68 74
180 160 157 148 136 124 123 125 114 123 117 122 135 136 138 141 148 149 149 156 153 164 186 178 136 81 83 76 60 55 57 65 66 66 68 71 71 71 69 68 67 70 77
151 142 141 139 118 104 108 116 108 103 105 83 101 108 108 122 126 140 150 154 156 154 158 158 164 146 121 103 78 63 64 69 68 69 72 73 73 73 72 72 71 72 76
160 155 152 139 133 119 111 119 122 116 110 91 83 107 111 124 131 140 141 142 140 137 143 139 122 126 119 110 87 78 74 67 68 72 74 75 75 75 74 76 76 76 76
164 156 142 136 136 122 118 124 122 112 116 111 100 101 96 109 114 130 141 149 150 147 146 151 142 137 130 135 111 94 79 78 75 78 80 82 82 79 77 79 81 78 76
157 150 145 147 146 136 128 127 124 117 116 114 114 114 111 121 126 135 139 145 146 136 131 144 146 136 130 133 113 89 79 56 84 91 89 88 88 88 88 89 92 90 88
160 164 164 161 156 144 136 133 124 115 106 97 100 111 120 138 155 155 146 144 135 127 125 134 140 141 138 137 140 138 110 54 64 69 70 85 90 96 98 104 108 106 103
168 166 158 154 158 156 154 147 142 131 119 103 86 84 101 120 138 155 152 151 143 137 139 143 152 153 163 169 180 178 170 151 22 110 72 47 68 78 99 126 132 127 122
156 150 159 163 171 181 159 152 147 138 131 125 111 82 84 83 104 117 136 151 155 158 163 164 175 188 196 192 176 176 166 167 219 178 175 132 128 237 243 219 189 169 159
157 151 156 147 156 184 166 156 148 143 138 138 133 117 96 73 91 111 123 128 143 160 171 173 185 203 202 197 181 181 185 192 210 175 176 209 207 248 247 228 212 199 183
162 164 163 156 145 160 153 144 140 136 133 140 150 155 136 109 111 126 129 126 133 166 195 194 200 207 203 193 192 188 179 169 168 174 182 214 221 251 264 240 220 206 199
162 163 155 161 162 169 160 156 147 136 133 136 132 136 147 148 133 134 135 138 136 272 144 159 178 181 171 170 166 149 155 167 201 203 188 205 213 245 254 250 231 216 211
163 155 152 165 170 175 172 162 155 146 149 157 140 165 162 167 160 152 153 160 182 214 163 132 112 112 143 156 166 181 181 183 192 219 188 192 188 195 248 239 235 223 219